EB5EEV-5 Weather Reports


time (UTC)temp
C
wind
direction
speed
KPH
gust
KPH
rain 1hr
cm
rain 24hr
cm
rain mn
cm
humidity
%
barometer
mb
20260507135419 20 250 8.0 17.7 0.00 0.00 0.00 6 1007.5
20260507133950 20 165 3.2 19.3 0.00 0.00 0.00 7 1007.7
20260507132545 20 129 14.5 16.1 0.00 0.00 0.00 7 1008.0
20260507131114 20 231 9.7 11.3 0.00 0.00 0.00 7 1008.1
20260507125824 20 233 3.2 3.2 0.00 0.00 0.00 7 1008.0
20260507124513 20 333 8.0 8.0 0.00 0.00 0.00 7 1008.2
20260507123305 20 333 8.0 8.0 0.00 0.00 0.00 7 1008.2
20260507121915 20 236 1.6 3.2 0.00 0.00 0.00 7 1008.2
20260507120658 20 221 9.7 9.7 0.00 0.00 0.00 7 1008.5
20260507115345 20 1 6.4 8.0 0.00 0.00 0.00 6 1008.6
20260507114050 20 0 0.0 4.8 0.00 0.00 0.00 7 1008.9
20260507112553 20 0 0.0 3.2 0.00 0.00 0.00 7 1008.8
20260507111350 20 0 0.0 3.2 0.00 0.00 0.00 7 1009.1
20260507110045 20 225 1.6 4.8 0.00 0.00 0.00 7 1009.0
20260507105825 20 225 1.6 4.8 0.00 0.00 0.00 7 1009.0
20260507104613 20 225 1.6 4.8 0.00 0.00 0.00 7 1009.0
20260507103239 19 111 4.8 9.7 0.00 0.00 0.00 7 1009.0
20260507101856 19 0 0.0 8.0 0.00 0.00 0.00 7 1009.1
20260507100517 19 170 6.4 11.3 0.00 0.00 0.00 7 1009.3
20260507095251 18 219 4.8 6.4 0.00 0.00 0.00 7 1009.4
20260507093756 18 135 1.6 4.8 0.00 0.00 0.00 7 1009.3
20260507092436 18 0 0.0 9.7 0.00 0.00 0.00 7 1009.5
20260507091056 18 0 0.0 3.2 0.00 0.00 0.00 7 1009.5
20260507085641 18 162 1.6 4.8 0.00 0.00 0.00 7 1009.4
20260507084221 -17 0 0.0 0.0 0.00 0.00 0.00 100 1009.2
20260507082925 -17 0 0.0 0.0 0.00 0.00 0.00 100 1009.2
20260507081725 -17 0 0.0 0.0 0.00 0.00 0.00 100 1009.2
20260507080349 -17 0 0.0 0.0 0.00 0.00 0.00 100 1009.1
20260507074901 -17 0 0.0 0.0 0.00 0.00 0.00 100 1009.1
20260507073525 -17 0 0.0 0.0 0.00 0.00 0.00 100 1009.2
20260507072235 -17 0 0.0 0.0 0.00 0.00 0.00 100 1009.2
20260507071035 -17 0 0.0 0.0 0.00 0.00 0.00 100 1008.8
20260507065811 -17 0 0.0 0.0 0.00 0.00 0.00 100 1008.8
20260507064610 -17 0 0.0 0.0 0.00 0.00 0.00 100 1008.8
20260507063316 -17 0 0.0 0.0 0.00 0.00 0.00 100 1009.0
20260507061913 -17 0 0.0 0.0 0.00 0.00 0.00 100 1008.9
20260507060651 -17 0 0.0 0.0 0.00 0.00 0.00 100 1008.8
20260507055450 -17 0 0.0 0.0 0.00 0.00 0.00 100 1008.6
20260507054141 -17 0 0.0 0.0 0.00 0.00 0.00 100 1008.3
20260507052656 -17 0 0.0 0.0 0.00 0.00 0.00 100 1008.3
20260507051345 -17 0 0.0 0.0 0.00 0.00 0.00 100 1008.2
20260507045903 -17 0 0.0 0.0 0.00 0.00 0.00 100 1008.3
20260507044633 -17 0 0.0 0.0 0.00 0.00 0.00 100 1008.3
20260507043401 -17 0 0.0 0.0 0.00 0.00 0.00 100 1008.2
20260507042156 -17 0 0.0 0.0 0.00 0.00 0.00 100 1008.1
20260507040801 -17 0 0.0 0.0 0.00 0.00 0.00 100 1008.3
20260507035306 -17 0 0.0 0.0 0.00 0.00 0.00 100 1008.2
20260507034041 -17 0 0.0 0.0 0.00 0.00 0.00 100 1008.2
20260507032741 -17 0 0.0 0.0 0.00 0.00 0.00 100 1008.3
20260507031307 -17 0 0.0 0.0 0.00 0.00 0.00 100 1008.5
20260507030005 -17 0 0.0 0.0 0.00 0.00 0.00 100 1008.6
20260507024601 -17 0 0.0 0.0 0.00 0.00 0.00 100 1008.7
20260507023400 -17 0 0.0 0.0 0.00 0.00 0.00 100 1008.7
20260507021956 -17 0 0.0 0.0 0.00 0.00 0.00 100 1008.6
20260507020717 -17 0 0.0 0.0 0.00 0.00 0.00 100 1008.5
20260507015503 -17 0 0.0 0.0 0.00 0.00 0.00 100 1008.6
20260507012731 -17 0 0.0 0.0 0.00 0.00 0.00 100 1008.4
20260507011341 -17 0 0.0 0.0 0.00 0.00 0.00 100 1008.5
20260507005851 -17 0 0.0 0.0 0.00 0.00 0.00 100 1008.6
20260507004646 -17 0 0.0 0.0 0.00 0.00 0.00 100 1008.6
20260507003334 -17 0 0.0 0.0 0.00 0.00 0.00 100 1008.6
20260507002121 -17 0 0.0 0.0 0.00 0.00 0.00 100 1008.6
20260507000659 -17 0 0.0 0.0 0.00 0.00 0.00 100 1008.8
20260506235211 -17 0 0.0 0.0 0.00 0.00 0.00 100 1008.8
20260506233923 -17 0 0.0 0.0 0.00 0.00 0.00 100 1009.1
20260506232651 -17 0 0.0 0.0 0.00 0.00 0.00 100 1009.1
20260506231325 -17 0 0.0 0.0 0.00 0.00 0.00 100 1009.2
20260506225949 -17 0 0.0 0.0 0.00 0.00 0.00 100 1009.2
20260506224616 -17 0 0.0 0.0 0.00 0.00 0.00 100 1009.2
20260506223144 -17 0 0.0 0.0 0.00 0.00 0.00 100 1009.2
20260506221731 -17 0 0.0 0.0 0.00 0.00 0.00 100 1009.2
20260506220329 -17 0 0.0 0.0 0.00 0.00 0.00 100 1009.3
20260506213715 -17 0 0.0 0.0 0.00 0.00 0.00 100 1009.3
20260506212356 -17 0 0.0 0.0 0.00 0.00 0.00 100 1009.2
20260506211013 -17 0 0.0 0.0 0.00 0.00 0.00 100 1009.0
20260506205516 -17 0 0.0 0.0 0.00 0.00 0.00 100 1008.8
20260506204033 -17 0 0.0 0.0 0.00 0.00 0.00 100 1008.6
20260506202659 -17 0 0.0 0.0 0.00 0.00 0.00 100 1008.6
20260506201158 -17 0 0.0 0.0 0.00 0.00 0.00 100 1008.3
20260506195735 -17 0 0.0 0.0 0.00 0.00 0.00 100 1007.9
20260506194305 -17 0 0.0 0.0 0.00 0.00 0.00 100 1007.8
20260506192856 -17 0 0.0 0.0 0.00 0.00 0.00 100 1007.7
20260506191449 -17 0 0.0 0.0 0.00 0.00 0.00 100 1007.6
20260506190201 -17 0 0.0 0.0 0.00 0.00 0.00 100 1007.6
20260506184836 -17 0 0.0 0.0 0.00 0.00 0.00 100 1007.6
20260506183551 -17 0 0.0 0.0 0.00 0.00 0.00 100 1007.6
20260506182336 -17 0 0.0 0.0 0.00 0.00 0.00 100 1007.5
20260506181011 -17 0 0.0 0.0 0.00 0.00 0.00 100 1007.6
20260506175731 -17 0 0.0 0.0 0.00 0.00 0.00 100 1007.6
20260506174319 -17 0 0.0 0.0 0.00 0.00 0.00 100 1007.5
20260506172945 -17 0 0.0 0.0 0.00 0.00 0.00 100 1007.6
20260506171628 -17 0 0.0 0.0 0.00 0.00 0.00 100 1007.6
20260506170136 -17 0 0.0 0.0 0.00 0.00 0.00 100 1007.5
20260506164748 -17 0 0.0 0.0 0.00 0.00 0.00 100 1007.6
20260506163525 -17 0 0.0 0.0 0.00 0.00 0.00 100 1007.6
20260506162144 -17 0 0.0 0.0 0.00 0.00 0.00 100 1007.5
20260506160801 -17 0 0.0 0.0 0.00 0.00 0.00 100 1007.7
20260506155545 -17 0 0.0 0.0 0.00 0.00 0.00 100 1007.7
20260506154244 20 0 0.0 0.0 0.00 0.00 0.00 6 1007.5
20260506152803 20 330 4.8 4.8 0.00 0.00 0.00 6 1007.5
20260506151436 20 328 9.7 16.1 0.00 0.00 0.00 6 1007.4
20260506145941 20 136 3.2 4.8 0.00 0.00 0.00 6 1007.6
20260506144631 20 136 3.2 4.8 0.00 0.00 0.00 6 1007.6
20260506143249 20 326 1.6 9.7 0.00 0.00 0.00 6 1007.8